EHI
0 0 0 0 0 0 0 0 0 2 5 12 23 28 24 16 7 2 2 9 21 26 26 33 39 36 28 20 14 11 9 9 9 8 9 12 11 8 7 7 7 5 3 2 1 0 0 0 0
0 0 0 0 0 0 0 0 1 3 10 21 33 36 29 19 10 3 2 11 23 27 26 33 43 43 35 25 18 13 11 10 9 8 9 10 10 8 6 5 5 4 2 1 0 0 0 0 0
0 0 0 0 0 0 0 0 2 7 18 34 44 41 29 18 10 4 6 16 24 26 27 35 47 50 42 31 22 15 13 11 9 6 6 7 7 6 5 3 3 2 1 0 0 0 0 0 0
0 0 0 0 0 0 0 0 4 12 26 40 45 40 27 16 14 14 15 22 29 29 29 38 49 51 44 34 25 18 14 12 8 4 3 3 4 4 4 3 2 2 1 0 0 0 0 0 0
0 0 0 0 0 0 0 2 7 18 30 40 44 38 25 18 23 27 24 27 33 34 33 38 45 47 43 36 28 21 15 12 8 4 1 1 1 2 2 2 2 2 1 0 0 0 0 0 0
0 0 0 0 0 0 1 4 11 21 31 41 44 36 22 17 24 29 27 28 32 33 32 34 38 40 40 37 30 22 17 13 7 3 1 0 0 0 1 1 2 1 0 0 0 0 0 0 0
0 0 0 0 0 0 2 7 12 19 29 40 44 33 18 12 18 26 28 28 27 27 27 28 29 32 35 34 29 24 20 16 10 3 1 0 0 0 0 0 0 0 0 0 0 0 0 0 0
0 0 0 0 0 1 5 10 14 19 28 39 41 30 17 14 20 31 36 31 24 22 21 21 22 24 27 28 26 25 24 21 14 6 2 1 0 0 0 0 0 0 1 1 1 1 1 1 0
0 0 0 0 0 2 7 12 16 22 33 40 39 30 21 22 28 37 41 35 26 19 14 14 15 16 19 22 23 22 22 20 14 9 6 5 3 1 0 0 1 1 2 3 3 3 2 2 1
0 0 0 0 1 2 7 13 16 23 34 38 36 32 27 28 33 38 39 35 28 18 11 10 11 12 13 16 18 17 15 14 11 10 9 8 5 3 1 0 1 2 2 3 4 4 2 2 2
0 0 0 1 2 4 9 12 14 19 26 29 31 32 29 30 35 37 36 32 27 20 13 11 11 10 9 11 13 13 10 9 9 8 8 8 6 3 1 0 1 1 1 1 2 1 1 1 3
0 0 1 2 4 7 10 13 14 15 17 23 30 31 28 30 36 37 32 29 28 24 18 14 12 9 7 9 12 12 10 9 7 5 5 6 5 2 1 0 0 0 0 1 0 0 0 1 1
0 1 3 4 6 9 11 13 15 15 19 29 35 33 29 31 34 33 30 31 32 29 24 20 17 12 10 12 13 13 10 7 5 4 3 4 3 2 0 0 0 0 0 0 0 0 1 0 0
0 1 3 6 7 9 11 13 14 18 27 36 39 35 32 31 32 32 33 36 37 34 30 28 25 20 17 16 15 12 9 7 5 4 3 3 3 2 0 0 0 0 0 0 0 0 0 0 0
0 0 2 5 6 7 8 9 11 19 32 40 39 36 33 32 32 32 35 39 40 37 35 34 32 26 22 19 15 11 9 8 7 5 5 4 4 2 0 0 0 0 0 0 0 0 0 0 0
0 0 1 3 3 3 3 5 9 18 29 37 37 33 32 32 32 32 34 36 37 35 33 34 32 27 23 19 15 11 10 10 9 7 6 6 5 2 1 0 0 0 0 0 0 0 0 0 0
0 0 1 1 1 1 1 3 9 17 25 32 32 28 26 26 29 32 34 36 35 32 29 28 28 25 22 19 16 13 10 10 9 8 7 6 5 3 1 0 1 1 1 0 0 0 0 0 0
0 0 0 0 1 1 1 3 9 15 22 29 28 24 21 22 26 31 35 36 34 29 26 24 23 22 19 17 15 13 10 8 8 8 7 7 6 4 2 0 1 2 1 0 0 0 0 0 0
0 0 0 0 0 1 1 3 8 15 22 27 27 23 21 23 28 31 33 33 31 26 24 22 20 18 15 14 13 12 9 7 7 9 10 9 7 4 2 1 1 1 1 0 0 0 0 0 0
0 0 0 0 0 1 1 2 6 13 21 26 27 24 22 26 30 31 30 30 29 25 23 21 18 15 13 11 11 11 9 7 7 9 9 8 6 4 2 1 1 0 0 0 0 0 0 0 0
0 0 0 0 0 1 1 1 3 9 17 24 26 24 23 26 30 31 30 28 26 25 23 21 17 14 12 10 9 9 8 7 7 7 6 5 4 2 1 1 0 0 0 0 0 0 0 0 0
0 0 0 0 0 0 0 0 1 6 12 18 21 22 22 25 29 31 29 26 25 24 22 21 17 14 12 9 8 7 7 6 6 5 4 3 2 1 0 0 0 0 0 0 0 0 0 0 0
0 0 0 0 0 0 0 0 1 4 9 12 15 19 23 25 28 31 31 27 24 23 22 21 19 16 12 8 6 6 6 5 4 4 3 2 1 1 0 0 0 0 0 0 0 0 0 0 0
0 0 0 0 0 0 0 0 1 3 5 7 9 16 23 27 29 32 31 28 24 23 22 21 20 17 12 7 5 5 5 4 3 3 3 1 0 0 0 0 0 0 0 0 0 0 0 0 0
0 0 0 0 0 0 0 0 1 2 2 3 5 13 23 28 29 29 29 26 23 21 19 18 18 16 12 8 5 4 4 3 3 3 2 1 0 0 0 0 0 0 0 0 0 0 0 0 0
0 0 0 0 0 0 0 0 0 0 0 1 4 11 21 26 26 25 23 20 16 15 14 13 15 15 12 8 5 4 3 3 2 2 1 0 0 0 0 0 0 0 0 0 0 0 0 0 0
0 0 0 0 0 0 0 0 0 0 0 1 4 11 17 21 23 21 16 12 9 9 9 10 13 14 11 7 4 4 3 1 1 1 0 0 0 0 0 0 0 0 0 0 0 0 0 0 0
0 0 0 0 0 0 0 0 0 0 1 2 5 10 14 17 19 16 11 8 7 7 6 8 10 11 9 6 4 3 2 1 0 0 0 0 0 0 0 0 0 0 0 0 0 0 0 0 0
0 0 0 0 0 0 0 0 0 0 0 2 5 9 13 15 15 12 8 7 6 6 6 7 7 8 7 5 3 2 1 0 0 0 0 0 0 0 0 0 0 0 0 0 0 0 0 0 0
0 0 0 0 0 0 0 0 0 0 0 1 5 9 13 14 12 9 7 6 6 6 6 6 6 7 6 4 2 1 0 0 0 0 0 0 0 0 0 0 0 0 0 0 0 0 0 0 0
Wind_Speed
4 3 1 3 5 4 3 5 2 1 3 5 10 12 10 6 4 5 4 14 16 14 10 13 16 16 16 15 15 14 13 13 13 12 12 12 12 11 11 10 10 10 9 8 8 7 7 7 6
2 1 3 4 5 1 5 4 1 1 6 8 11 10 9 8 8 10 7 13 17 14 9 11 16 16 16 15 15 14 14 13 12 12 11 11 11 10 9 9 9 8 8 7 7 6 6 5 5
2 1 4 4 3 4 4 2 2 4 6 6 7 7 7 6 8 6 10 16 14 11 9 12 17 16 16 15 15 14 13 13 12 11 11 10 10 9 8 8 8 7 6 6 6 5 4 4 3
2 4 4 3 4 6 5 4 1 5 6 7 9 8 5 3 5 11 17 17 15 10 8 12 16 16 15 15 15 14 13 12 12 11 10 10 9 8 8 7 7 6 6 5 5 4 4 3 2
4 4 3 2 5 5 4 4 2 6 4 6 9 8 4 3 14 18 16 16 15 11 8 11 15 15 15 15 14 13 13 12 11 10 10 9 8 7 7 7 6 6 5 5 4 4 3 3 2
4 4 3 2 6 5 3 1 7 10 7 6 7 7 3 6 14 15 15 13 14 13 9 10 16 16 15 14 13 13 12 11 10 10 9 8 7 7 6 6 6 6 5 5 5 4 4 4 4
3 3 2 3 5 5 3 2 5 7 6 4 5 6 3 6 10 14 14 13 12 11 10 7 8 11 14 14 13 12 12 11 10 9 9 8 8 7 7 7 7 6 6 6 6 6 6 5 5
5 3 2 3 3 4 2 3 4 6 5 4 5 7 6 8 11 13 13 11 11 9 9 8 6 6 7 8 13 13 12 11 11 10 9 9 8 8 8 7 7 8 8 8 7 7 7 6 6
3 4 2 4 2 3 2 4 3 4 7 3 3 6 8 12 14 14 12 9 9 9 7 7 7 6 6 6 9 10 11 11 10 9 10 8 4 4 5 8 9 10 9 9 9 8 7 7 7
4 3 7 5 3 2 0 3 4 5 7 5 5 6 10 12 13 14 13 11 10 9 8 6 7 6 6 6 5 4 5 5 5 4 5 3 3 4 6 8 11 11 10 10 9 9 8 7 3
4 6 6 4 2 3 2 2 2 9 5 7 11 13 11 10 11 12 11 11 10 10 9 7 7 6 6 4 4 3 2 2 3 4 4 3 3 2 3 2 4 5 6 4 5 5 3 3 3
3 5 4 3 2 3 3 3 3 5 7 10 13 13 11 10 10 10 9 8 8 9 8 7 7 6 6 4 4 4 2 2 2 3 3 3 2 1 1 1 2 2 1 2 2 2 3 3 4
2 4 3 2 2 4 5 5 5 3 7 10 12 12 9 8 8 6 6 5 6 7 6 7 7 7 5 4 3 4 3 3 2 2 2 3 2 1 1 1 1 1 1 2 2 2 3 3 4
3 3 2 1 1 2 6 3 5 3 8 11 11 11 10 8 7 6 6 5 5 6 6 5 6 6 6 4 3 3 3 3 2 2 2 2 2 1 1 1 1 1 1 1 2 2 2 2 2
1 2 5 3 1 1 6 5 2 4 7 10 9 8 8 7 7 6 6 5 5 6 6 6 6 6 5 4 3 2 2 3 2 2 2 2 2 2 1 1 0 1 1 1 1 1 1 2 2
5 3 3 7 2 2 6 2 2 5 9 8 8 7 6 5 6 6 6 6 5 5 6 5 5 5 5 4 3 2 2 3 2 2 2 2 2 2 2 1 0 1 0 0 0 0 1 1 2
5 2 3 7 3 2 5 4 4 6 9 8 7 7 7 5 4 4 5 6 5 6 6 4 4 5 4 3 2 2 2 2 2 2 2 1 1 2 2 1 0 1 1 1 1 1 0 1 2
4 3 3 5 4 3 4 4 5 7 8 9 8 7 6 6 5 4 5 6 5 4 5 5 4 4 3 2 2 2 2 1 1 1 2 2 1 1 1 0 0 1 1 1 1 1 1 1 2
5 3 4 6 4 3 4 4 5 6 7 8 7 6 6 5 4 4 4 5 5 4 4 4 3 2 2 1 1 1 1 1 1 1 1 2 2 2 1 0 0 1 0 1 1 1 2 2 2
3 2 4 5 2 3 3 3 3 4 6 8 9 8 7 6 5 5 4 3 3 4 4 3 3 2 2 2 2 1 1 1 1 0 1 1 1 1 1 1 0 0 0 1 1 1 1 1 2
2 2 2 2 2 3 3 3 1 1 1 3 6 7 7 9 9 7 5 3 3 3 4 3 3 2 1 1 1 2 2 1 1 1 1 1 1 1 2 1 1 1 1 0 1 0 1 1 1
3 4 2 0 2 2 1 1 3 2 2 3 5 5 7 7 8 7 7 5 5 4 3 3 3 2 1 2 2 3 2 1 1 1 0 1 1 1 2 1 1 1 1 1 1 1 0 1 1
4 2 1 1 1 1 3 2 5 2 3 5 5 6 6 7 8 7 6 6 4 4 3 3 3 2 2 2 3 3 2 1 1 1 1 1 1 1 1 1 1 1 1 0 0 0 0 1 1
0 4 6 5 5 2 3 1 4 3 5 4 5 6 6 7 7 6 5 5 4 3 3 3 3 2 2 2 3 3 3 2 2 1 1 0 0 0 1 1 1 0 0 0 1 1 1 1 1
4 5 4 6 5 4 3 1 5 4 3 4 6 6 6 7 7 6 5 5 5 4 3 3 4 3 2 2 2 2 2 2 2 1 1 1 0 0 1 0 0 0 0 1 1 1 1 1 1
1 6 6 3 4 5 3 2 4 2 1 3 4 5 6 6 6 6 6 5 5 4 3 3 3 2 2 2 2 2 2 1 1 1 1 1 1 1 1 0 0 0 1 1 1 1 1 1 1
1 1 6 6 1 1 3 3 4 1 1 2 4 5 6 7 6 6 5 4 5 4 3 4 3 2 1 1 1 1 1 1 1 0 0 1 1 1 1 1 1 0 0 0 0 0 1 1 1
3 3 5 4 2 2 3 3 4 5 4 3 4 5 5 6 6 5 5 4 4 4 3 3 4 3 2 1 1 1 1 1 0 0 0 1 1 1 1 0 1 1 1 0 0 0 1 1 1
3 2 3 3 4 4 3 6 5 7 7 6 5 5 6 6 7 6 5 4 4 3 2 2 2 2 2 2 1 1 1 1 1 0 1 1 1 1 1 1 0 0 0 0 0 0 1 1 1
1 2 4 3 3 3 3 7 4 5 6 7 6 5 5 5 5 6 5 4 4 3 3 2 2 2 2 2 2 1 0 0 0 1 1 1 1 1 1 1 0 0 0 0 0 1 1 1 1
Wind_Direction
265 253 123 64 55 47 261 256 243 357 59 68 90 94 91 77 122 142 122 133 132 137 142 142 140 140 140 138 135 131 128 126 123 121 117 114 111 111 110 110 111 111 110 110 109 110 110 110 109
259 220 72 63 84 35 270 250 258 126 126 115 87 83 79 73 86 109 120 136 134 136 139 141 140 141 141 141 140 138 136 134 132 129 126 123 120 119 118 116 115 114 114 115 115 116 116 116 117
262 125 89 79 127 193 246 265 119 104 110 94 82 63 69 97 110 122 141 137 130 132 136 144 141 141 143 143 144 142 140 140 139 137 135 134 132 131 129 127 126 123 124 126 128 128 127 128 130
62 51 55 76 248 235 224 260 207 91 59 59 95 78 60 89 123 132 138 135 130 130 135 143 142 143 144 145 146 146 144 144 145 145 144 144 143 141 139 139 139 138 140 139 141 146 148 154 164
70 75 56 337 264 256 243 235 172 94 73 82 96 97 67 52 116 130 137 136 133 133 134 140 141 144 146 147 147 148 148 148 149 151 152 152 152 152 153 154 154 154 158 163 166 168 172 187 208
52 71 83 268 273 279 278 231 104 102 108 92 87 100 90 121 127 135 136 134 136 137 135 140 145 146 147 149 150 151 152 153 155 156 157 160 164 166 169 173 173 176 181 187 192 197 202 214 230
116 102 194 247 284 303 295 62 101 122 114 114 113 101 118 143 136 134 133 131 133 137 137 141 150 150 151 151 153 155 156 158 160 163 166 170 176 182 186 191 193 196 201 208 212 216 220 227 237
152 94 318 288 276 293 310 82 103 111 104 107 112 130 159 167 135 127 127 129 133 138 144 146 149 147 149 154 160 162 163 165 169 174 179 186 191 197 202 203 209 212 215 221 225 229 233 236 243
119 75 269 252 242 276 326 81 78 70 95 68 87 131 151 143 130 128 129 130 139 144 152 154 155 156 155 160 167 166 169 174 178 184 192 195 200 208 216 220 220 222 225 229 233 234 238 241 247
114 158 233 227 196 181 56 103 125 95 84 94 90 104 132 136 136 140 145 148 153 158 165 164 164 162 162 170 161 167 176 180 183 189 199 198 202 216 224 229 229 230 232 236 239 241 242 246 246
168 204 238 265 220 150 116 88 114 127 127 153 148 145 149 143 143 147 152 155 160 162 165 169 166 163 166 165 157 172 177 180 191 195 199 199 205 221 227 221 237 240 243 242 249 251 241 238 238
210 254 238 235 217 132 129 122 95 132 160 160 152 149 155 151 148 148 151 152 154 154 161 163 163 165 170 160 166 174 178 180 189 197 192 180 187 198 201 209 219 224 234 235 237 237 240 241 243
226 264 269 207 172 144 110 99 107 111 132 130 134 138 145 146 138 133 135 140 147 156 157 155 157 160 160 154 171 166 175 178 183 181 179 167 165 174 184 200 206 215 223 227 236 241 247 250 256
237 267 289 295 218 135 110 93 93 129 131 125 137 145 146 143 133 127 132 144 151 155 153 149 149 153 150 151 162 162 168 166 165 161 165 158 161 164 169 177 191 221 234 240 239 242 241 253 253
304 344 327 321 343 177 98 54 80 138 128 127 135 138 136 134 137 149 149 149 151 151 141 142 144 142 145 146 153 153 154 149 151 161 151 150 152 145 141 144 223 261 260 257 254 268 248 271 277
8 23 319 296 271 208 113 147 192 143 125 125 134 136 128 133 155 161 144 140 144 139 137 149 146 140 143 145 151 157 150 147 154 155 138 141 148 133 121 120 268 285 303 298 236 258 291 290 292
10 330 278 297 305 134 117 171 182 155 141 139 146 155 155 159 158 150 139 141 147 149 145 140 132 138 145 144 141 136 127 129 140 139 133 141 125 118 115 135 266 328 4 346 322 359 281 294 300
260 269 278 278 289 120 126 172 162 161 155 156 163 171 166 167 169 145 138 139 140 140 133 127 123 124 123 109 93 87 93 101 113 136 143 135 133 115 109 136 15 27 34 354 345 338 342 291 291
228 260 276 272 262 121 140 153 169 159 159 164 170 173 169 161 148 133 134 135 130 127 114 115 123 138 135 135 136 141 165 145 111 151 143 130 120 120 122 142 50 27 56 336 343 353 343 322 335
250 262 281 300 316 109 123 130 156 159 179 174 172 178 169 146 134 140 134 130 132 136 131 126 134 148 155 164 170 168 151 140 140 114 80 93 97 116 141 132 134 31 42 8 10 27 360 319 358
298 230 250 258 356 46 80 24 39 227 137 167 178 173 164 163 157 153 146 139 146 143 138 137 146 150 142 145 119 93 67 51 51 55 36 27 75 81 75 91 102 83 87 23 331 81 136 280 315
276 264 251 159 75 298 104 244 280 213 193 190 186 170 172 163 153 156 154 154 160 157 145 149 150 141 126 117 123 132 129 152 196 178 122 17 55 82 87 85 115 110 96 66 355 44 175 155 299
233 253 350 34 101 25 4 120 272 196 221 227 202 187 179 162 155 159 158 156 149 146 140 139 125 110 104 113 129 124 119 137 123 98 81 38 20 44 73 80 86 74 73 91 250 288 286 180 204
207 38 23 35 58 6 278 186 273 239 217 205 197 193 179 158 152 152 149 141 138 135 128 124 116 99 97 107 115 124 128 124 115 103 116 63 16 19 48 101 104 81 55 300 284 265 250 235 223
58 74 24 3 8 264 278 156 247 260 232 188 182 181 172 155 150 148 144 144 141 138 141 130 123 109 94 94 94 104 121 130 138 153 174 173 163 285 279 105 91 12 299 287 315 309 272 254 233
227 135 154 195 231 273 321 235 254 266 71 120 145 158 152 146 149 152 150 147 139 130 124 130 125 114 104 103 102 94 95 98 113 180 177 178 194 218 226 175 160 297 302 311 345 332 293 278 240
139 181 171 146 197 274 274 265 289 329 62 111 120 126 146 155 150 148 147 146 139 132 131 130 123 118 110 114 112 78 71 71 53 14 122 182 204 205 168 159 162 246 261 281 358 323 305 317 312
145 158 85 100 160 269 276 248 233 227 221 198 152 153 159 160 154 152 152 149 145 142 142 130 135 146 134 110 123 112 68 28 354 18 298 236 241 213 162 196 211 232 247 293 76 314 328 7 338
356 24 101 127 164 174 247 263 228 202 200 188 188 170 159 158 160 159 156 147 133 129 139 142 141 131 130 135 129 103 67 33 17 338 269 248 248 225 197 207 242 225 306 353 63 307 337 2 331
191 200 148 160 237 189 201 262 276 185 177 164 161 155 150 153 158 158 153 141 136 148 161 169 165 155 154 153 143 126 94 80 311 298 292 282 300 295 260 214 137 38 20 48 89 310 324 303 308